Wind_Speed
27 26 27 28 28 28 27 28 29 29 29 30 30 30 29 29 29 28 28 29 29 29 29 29 29 28 27 26 25 24 24 25 25 25 25 25 25 26 26 25 25 25 24 23 22 22 22 23 22 22 22 22 22 22 22 22 22 22 23 23 23 23 22 19 17 16 14 12 11 12 13 15 17 18 19 20 21 21 22 22 21 22 22 23 24
28 27 28 30 30 29 29 29 30 30 31 31 32 32 31 30 30 30 29 30 30 29 29 29 29 28 27 26 25 25 26 27 27 27 27 28 28 28 27 27 26 25 24 24 24 24 24 24 24 23 23 23 23 23 23 23 23 23 23 23 23 22 21 18 17 15 13 11 11 13 14 15 17 18 19 20 20 20 20 20 21 21 22 23 23
29 29 30 31 31 31 31 30 30 31 32 33 33 33 33 33 33 32 31 31 30 29 29 29 28 28 28 28 27 28 29 30 30 31 31 31 30 29 28 27 27 26 25 25 25 26 26 25 24 24 24 24 24 24 24 24 23 23 23 23 22 22 20 18 16 14 13 12 12 13 14 15 17 18 19 20 20 19 19 20 21 22 22 22 23
31 29 30 31 32 32 31 31 31 32 33 33 34 35 35 35 35 34 32 32 31 30 30 29 29 30 30 30 30 31 32 32 34 33 33 32 31 29 28 27 27 27 27 27 27 27 28 26 25 25 25 25 25 25 25 24 24 24 23 23 22 21 20 18 15 14 14 14 14 14 15 16 16 16 17 18 18 18 19 20 21 21 21 21 22
33 30 30 31 32 32 32 31 32 33 33 33 35 36 36 36 36 35 34 34 33 32 31 30 31 32 32 32 32 33 33 34 34 33 32 32 30 29 28 28 29 29 29 28 28 29 28 27 26 27 27 26 25 26 26 25 24 24 24 23 22 21 20 18 15 15 16 16 16 16 16 16 15 14 15 15 17 18 18 19 21 21 21 21 22
34 32 31 31 32 31 32 32 33 33 32 32 34 36 36 36 36 36 36 36 36 35 33 34 35 34 34 34 33 33 33 33 32 31 31 31 31 30 30 30 31 31 31 31 31 30 29 28 28 28 29 28 27 27 27 27 26 25 24 23 21 21 20 17 16 16 17 18 18 19 18 18 16 15 14 15 16 17 18 18 19 20 20 20 21
34 33 33 32 32 32 32 32 33 32 31 31 33 34 35 36 36 36 37 37 37 37 37 37 37 36 35 35 34 34 33 32 31 31 32 32 32 32 32 33 33 33 32 32 32 32 31 30 29 30 30 29 28 28 28 28 27 26 24 22 21 20 19 17 17 17 18 19 20 20 19 19 18 17 17 17 17 18 19 19 18 19 20 20 21
34 34 34 33 33 32 33 33 33 32 31 32 32 33 34 35 36 36 37 38 38 38 39 39 39 37 36 36 36 36 35 33 32 33 34 34 35 35 35 35 35 34 33 33 33 33 32 32 31 31 31 30 29 29 29 29 27 26 24 22 20 19 18 18 18 18 19 20 20 20 20 19 19 19 20 21 22 22 23 22 20 21 22 23 23
37 36 35 34 34 33 33 33 33 33 33 32 32 32 33 34 35 36 37 37 38 39 40 40 40 39 39 38 38 37 36 35 34 35 35 36 37 37 36 36 36 35 34 34 35 34 33 33 32 32 31 30 29 29 30 29 27 26 24 22 20 19 19 19 18 19 19 20 20 20 20 20 20 21 22 23 25 26 26 25 24 24 24 25 27
41 39 36 34 33 33 32 34 34 34 33 33 33 33 33 33 34 35 36 37 38 39 39 40 40 41 40 40 40 39 38 37 37 36 37 38 38 38 38 37 37 36 35 36 36 35 34 33 32 32 32 31 30 30 30 29 27 26 24 22 21 20 19 19 19 19 20 20 20 20 20 21 21 22 24 26 27 29 29 28 28 27 27 28 29
43 41 38 35 34 33 33 33 33 33 34 34 34 33 33 33 33 34 35 36 37 38 39 39 40 41 41 40 41 40 39 39 39 38 38 39 40 39 39 39 38 37 37 37 36 35 33 33 33 33 32 32 31 31 30 29 27 25 24 22 21 21 20 19 19 20 20 20 20 20 20 20 21 23 25 27 29 30 30 30 29 29 29 29 30
45 43 40 38 36 34 33 33 33 33 34 34 34 34 33 32 32 33 34 35 37 38 38 39 39 39 40 40 41 40 41 41 40 40 40 40 40 40 40 40 40 39 38 38 36 34 33 33 34 34 33 33 31 30 29 28 27 25 24 23 22 21 20 19 20 20 20 20 20 20 20 21 22 25 26 28 30 30 31 30 30 30 30 29 30
47 45 42 40 39 36 34 33 33 34 34 33 34 34 34 34 33 34 34 34 36 37 37 38 38 39 39 40 40 40 41 41 41 41 41 41 41 41 41 41 41 40 39 38 36 35 34 34 34 34 34 33 31 30 29 28 27 25 24 24 23 22 20 20 21 20 20 20 21 20 21 22 24 26 28 29 31 31 31 31 31 31 31 31 31
48 47 45 43 41 38 35 34 34 35 34 34 34 35 36 36 36 35 35 35 36 36 36 37 39 39 39 40 40 40 41 41 41 42 41 41 42 42 42 42 42 41 39 38 37 36 35 35 35 34 33 32 31 30 29 28 27 25 25 25 23 22 21 21 21 21 21 21 21 21 22 23 25 27 29 31 31 31 32 32 32 32 32 32 32
47 48 47 45 43 40 38 36 35 36 36 36 36 37 38 38 38 38 36 36 37 37 37 37 38 39 40 40 40 41 41 41 41 42 42 42 42 42 42 42 42 41 40 38 37 37 37 36 35 34 33 31 31 30 29 28 27 26 26 25 23 22 21 21 21 22 22 22 21 22 23 25 27 29 30 31 32 32 32 33 33 34 34 34 34
41 47 49 48 46 44 42 39 37 38 38 38 38 39 40 39 40 40 39 38 38 38 38 38 38 39 40 40 41 42 42 42 42 42 42 41 42 42 42 42 42 41 40 38 37 38 38 37 35 33 32 31 30 30 29 28 27 26 26 25 23 22 22 22 22 22 22 22 22 23 25 26 28 30 31 32 32 32 33 33 34 34 35 35 36
31 39 46 50 48 47 46 44 42 40 40 40 39 39 40 40 41 41 40 40 39 39 39 39 39 40 40 40 41 43 43 43 43 42 42 42 42 43 42 43 43 42 40 38 37 38 38 36 34 33 32 31 30 30 29 28 27 27 26 25 23 23 23 23 23 23 22 22 23 24 26 27 29 31 31 32 32 33 33 34 34 35 35 36 37
28 33 40 46 47 45 44 45 45 44 42 41 40 40 40 40 41 42 42 42 41 40 40 40 41 41 41 41 41 42 42 43 43 43 43 43 44 43 43 43 43 42 40 38 38 39 38 36 34 33 32 31 30 30 29 28 28 27 26 25 23 23 23 23 23 23 22 23 24 25 27 28 30 31 32 32 33 33 34 35 35 35 35 36 36
29 33 36 39 41 42 42 42 43 43 43 43 41 41 40 40 41 42 42 43 43 43 41 41 41 41 42 42 42 42 42 42 43 43 44 44 44 44 44 44 43 42 41 39 38 39 38 35 33 33 32 31 31 30 29 28 28 27 26 24 24 24 24 24 23 23 23 24 25 26 28 29 31 31 32 33 33 34 35 36 36 35 35 35 36
23 30 36 37 35 37 40 42 42 42 42 43 42 41 41 40 41 42 43 44 45 45 43 43 43 42 42 42 42 43 43 43 43 44 44 44 44 45 45 44 43 42 41 40 39 39 38 35 33 33 32 32 32 31 29 29 28 27 25 25 25 25 24 24 24 24 24 25 26 27 29 30 31 32 33 33 34 35 36 37 36 35 34 35 36
19 23 31 36 36 35 37 41 42 42 42 42 42 41 41 41 41 41 42 44 45 45 44 44 44 43 43 42 42 43 43 44 44 44 44 44 45 45 45 44 43 43 42 41 40 39 37 35 33 33 33 33 32 31 29 29 28 27 26 25 25 24 24 24 24 24 25 26 27 29 30 31 32 33 33 34 35 36 37 37 36 34 34 36 37
22 21 23 29 34 36 37 39 40 41 42 42 42 42 41 42 41 41 42 43 43 43 44 45 45 45 44 43 43 43 44 45 45 45 45 45 45 45 45 45 44 43 42 41 40 38 37 36 35 34 34 33 32 31 30 29 28 27 26 26 25 24 25 25 25 25 26 27 28 29 30 31 33 33 34 34 36 37 37 36 35 35 35 37 38
26 25 25 25 29 33 37 41 41 42 41 41 41 41 41 41 40 40 41 41 41 40 41 44 45 45 45 44 44 44 45 45 45 46 46 46 46 46 46 45 44 43 43 42 41 39 37 37 36 35 34 33 32 31 30 29 28 27 26 25 25 25 25 25 26 26 27 28 29 30 31 32 33 34 34 35 36 37 37 37 36 35 36 37 39
27 27 28 27 27 28 31 36 40 43 43 42 42 42 42 42 40 39 38 39 39 38 39 41 43 44 44 44 44 44 44 45 45 46 46 47 47 46 46 45 44 44 43 42 42 40 38 38 37 35 34 32 31 30 30 29 28 27 25 25 25 25 25 26 27 27 28 28 29 30 31 32 33 34 34 35 36 37 37 37 37 37 37 38 39
27 27 28 28 28 27 27 29 32 36 38 40 41 41 42 42 39 37 35 35 35 35 37 39 40 41 42 42 43 43 44 44 44 45 45 46 46 46 46 46 45 45 44 43 42 41 39 38 36 34 32 31 31 30 30 29 28 26 25 25 25 25 26 27 28 28 28 29 29 30 31 32 33 34 34 35 36 37 38 38 38 38 37 38 40
26 27 27 26 26 26 26 26 25 27 30 31 32 34 36 37 37 36 35 34 34 35 36 37 38 39 40 41 42 42 43 43 43 43 43 43 43 43 44 44 44 45 45 43 42 40 38 37 35 32 31 31 31 31 30 28 27 26 25 25 26 27 27 28 29 29 29 29 30 31 32 32 33 34 35 36 37 38 39 39 38 38 38 38 40
23 25 24 23 24 24 24 24 22 23 24 25 26 26 28 30 33 35 36 36 37 38 38 39 39 39 40 40 41 41 42 42 42 42 42 41 40 40 41 41 41 41 41 40 39 38 37 35 33 31 31 31 31 30 29 27 26 26 26 26 27 28 29 29 29 29 29 30 31 31 32 33 33 34 35 37 38 39 39 39 38 37 37 39 41
18 18 18 16 17 19 21 21 21 21 21 22 23 24 24 26 28 30 33 35 36 37 38 39 39 40 41 41 42 43 43 43 43 43 42 41 40 39 39 39 39 37 36 36 36 36 34 32 31 31 31 31 31 30 28 27 27 27 27 28 29 30 30 30 30 30 30 31 32 32 33 33 33 35 36 37 38 39 39 39 37 37 37 39 41
14 14 15 12 10 11 13 14 16 16 17 18 19 20 21 23 25 27 29 30 32 33 35 36 37 38 39 39 40 41 42 42 42 42 41 41 40 38 37 37 36 34 33 34 34 33 31 30 30 31 31 31 30 29 28 28 28 28 29 29 30 31 32 31 31 31 31 32 33 33 33 33 34 35 36 37 39 39 39 38 36 37 38 39 40
12 12 15 14 11 9 9 10 12 13 14 14 15 16 18 19 20 22 24 26 27 29 31 32 34 35 35 36 36 37 37 37 38 38 38 37 36 34 33 34 33 31 31 31 31 30 29 29 30 30 30 30 29 29 29 29 29 30 31 31 32 33 32 32 32 32 33 33 34 34 34 34 35 35 37 38 39 39 38 36 36 37 38 39 40
16 13 15 15 14 13 12 12 14 15 15 16 16 16 17 17 18 19 21 22 24 25 26 27 29 29 30 31 32 32 33 33 33 34 33 32 31 30 30 31 30 29 29 29 28 28 28 28 29 30 30 30 30 30 30 30 31 32 32 33 33 33 33 33 33 34 34 34 35 35 35 35 35 36 38 39 40 39 37 35 35 37 38 39 39
20 16 15 16 17 16 15 15 16 17 18 18 19 19 19 20 20 21 21 21 21 22 23 24 25 25 26 27 27 28 29 29 29 29 28 27 27 27 28 28 27 27 27 27 26 26 27 28 30 30 31 31 31 31 32 32 33 33 33 34 34 34 35 35 35 35 35 35 36 36 36 35 36 37 39 40 39 38 36 35 35 36 37 38 38
26 22 19 18 19 19 19 20 20 20 21 21 21 21 21 22 23 23 22 22 22 22 22 22 23 23 24 24 25 25 25 26 26 25 25 25 25 25 25 25 25 25 25 25 25 26 27 29 30 31 31 32 32 33 33 33 34 34 35 35 36 36 36 36 36 36 36 36 36 36 36 36 37 38 39 39 38 36 34 34 35 36 37 37 36
34 32 29 25 22 21 21 22 22 23 24 23 22 22 21 22 23 23 23 22 23 23 22 22 22 22 23 22 23 23 23 23 23 22 22 22 22 23 22 22 22 23 23 23 24 26 28 30 31 32 33 33 34 34 34 35 35 36 36 37 37 37 38 37 37 37 37 37 37 37 37 37 38 39 39 38 37 34 33 33 34 34 35 35 34
41 39 37 32 26 22 21 21 21 22 22 21 21 20 20 21 21 22 22 22 22 22 22 22 21 21 21 21 20 21 20 20 20 20 20 20 20 21 20 21 21 21 22 24 25 27 29 31 32 33 34 35 35 35 36 36 37 37 38 38 39 39 39 38 38 38 38 38 38 38 38 38 38 39 38 37 35 32 31 32 32 33 33 32 32
46 43 42 38 30 25 23 21 20 20 19 19 19 19 20 20 20 21 22 22 21 21 20 20 20 19 20 20 20 20 19 19 19 19 19 19 19 20 20 21 22 23 24 26 28 29 31 33 34 35 36 37 37 37 37 37 38 38 39 39 40 40 40 39 39 39 39 39 39 39 39 39 39 38 37 35 33 31 30 31 31 32 31 31 31
42 45 46 42 34 30 28 25 23 23 22 22 22 22 22 22 22 22 22 21 21 20 19 18 18 18 19 21 21 20 20 20 20 20 20 20 20 21 22 23 24 25 26 28 30 31 33 34 36 37 37 38 38 38 38 38 39 40 40 41 41 41 40 40 39 39 40 40 40 40 40 39 38 37 35 33 31 30 29 30 31 31 30 30 31
32 38 43 43 39 35 33 30 26 25 26 26 26 25 25 24 24 24 23 22 21 19 18 17 16 16 18 20 21 21 21 21 21 21 21 22 22 23 24 25 26 27 29 31 32 34 35 36 37 38 38 39 38 39 39 39 40 41 41 41 41 41 41 40 40 40 41 41 41 41 40 38 37 35 33 31 30 28 28 30 31 30 30 30 31
26 30 35 40 42 39 36 32 28 27 28 28 28 27 25 24 24 24 23 22 21 19 18 17 17 16 17 18 20 21 23 23 23 23 24 24 25 26 27 28 29 31 32 33 35 36 37 38 39 39 39 39 39 40 40 41 41 42 42 42 42 41 41 41 41 41 41 41 42 41 39 37 36 34 32 30 28 27 28 30 30 30 30 31 31
24 25 28 33 38 38 36 33 30 30 30 29 28 27 24 24 23 23 22 22 21 21 20 20 20 19 19 20 20 22 23 24 25 26 27 27 28 29 30 31 32 34 35 36 37 38 38 39 39 40 40 40 41 41 41 42 42 42 42 42 42 41 41 41 41 42 42 42 42 39 38 37 35 33 31 29 27 27 28 29 30 30 30 31 32
25 23 23 25 30 33 34 33 32 31 29 27 27 25 24 24 24 24 24 24 24 24 23 23 24 24 24 24 24 25 26 27 28 29 30 31 31 32 33 34 35 36 37 38 38 39 39 39 40 40 41 41 42 42 42 43 43 43 42 42 42 42 41 42 42 42 43 43 40 38 37 36 33 31 30 29 27 27 28 30 30 31 31 31 33
26 24 21 20 22 24 26 28 28 27 25 25 25 25 25 26 26 26 27 27 26 26 26 26 27 27 27 27 27 28 29 30 31 32 33 34 35 36 37 37 37 38 39 39 39 39 39 40 40 40 41 42 42 43 43 43 43 42 42 42 42 42 42 42 43 43 43 42 39 38 37 34 31 30 30 28 27 28 29 30 31 32 32 32 33
26 24 23 21 20 20 21 22 23 23 24 25 25 27 28 28 29 29 29 29 29 29 29 29 29 29 29 29 30 31 32 33 34 35 36 37 38 39 39 39 39 40 39 39 40 39 40 40 40 41 41 41 42 43 43 42 42 42 42 42 42 42 42 43 43 44 43 41 39 39 35 31 29 29 29 28 27 28 30 31 32 33 32 33 34
26 25 24 24 23 23 23 24 25 25 26 27 29 30 31 31 32 32 32 32 32 31 31 31 31 31 31 31 32 33 33 34 35 36 37 38 39 39 40 40 41 41 41 41 41 40 41 40 40 40 40 41 41 42 41 41 41 41 41 42 42 43 43 44 44 44 42 40 40 37 32 29 28 29 28 28 28 28 30 32 33 33 33 33 35
24 25 25 26 26 26 26 27 28 29 29 30 31 32 32 32 32 32 32 32 31 31 31 31 31 32 32 32 33 34 34 35 36 36 36 37 37 38 38 39 40 41 42 42 42 41 41 40 39 39 39 40 40 41 40 40 40 41 42 43 43 44 44 45 45 44 42 40 39 35 30 28 28 29 28 28 28 29 32 33 34 34 33 34 35
20 21 22 23 24 25 25 26 26 26 27 27 27 27 27 27 27 27 27 27 27 27 27 28 28 29 29 30 31 32 33 34 35 35 36 36 36 37 38 39 40 41 41 42 42 41 40 39 38 38 38 39 39 40 40 41 41 42 43 44 45 45 46 46 45 43 41 40 37 34 30 28 29 29 28 28 29 31 33 34 34 34 34 35 36
15 16 17 18 19 20 20 21 21 21 22 22 23 23 24 24 24 24 24 24 24 24 24 24 25 25 26 27 29 30 31 32 33 34 35 36 36 37 38 39 40 40 40 41 41 41 39 38 37 36 36 38 39 40 41 42 42 43 44 44 45 46 47 47 45 42 41 39 36 34 31 28 28 29 28 28 30 33 34 35 34 34 34 35 36
13 14 14 15 16 17 18 18 19 20 21 22 23 23 23 24 24 23 23 24 23 24 24 24 25 25 26 27 27 28 29 30 31 32 33 34 35 36 37 37 38 38 40 40 40 39 38 36 34 34 35 37 39 40 41 41 41 42 43 44 47 48 48 46 43 41 38 36 35 34 30 28 29 29 29 30 33 35 35 35 35 36 36 36 37
14 14 14 15 16 17 18 19 20 21 22 23 24 24 24 25 25 25 25 25 25 26 26 27 27 28 29 29 30 30 31 31 32 32 33 33 34 34 35 35 36 37 39 39 40 39 37 35 34 35 36 38 39 39 38 38 40 43 45 47 50 50 47 43 41 38 36 34 34 33 31 30 30 30 31 35 37 37 37 37 37 37 38 38 39
15 16 16 17 17 18 19 20 21 22 24 24 25 26 26 27 27 27 27 27 27 27 27 27 28 29 30 30 31 31 31 32 32 32 32 33 33 33 34 34 35 35 37 38 39 39 37 37 37 37 38 40 41 40 40 41 44 47 49 50 50 46 43 40 38 36 34 33 34 34 33 32 32 32 35 39 39 38 38 40 41 41 40 39 40
17 18 18 18 19 19 19 20 21 23 24 25 26 26 27 28 28 28 27 27 27 27 27 28 28 29 29 30 30 30 30 30 30 30 30 30 30 30 31 32 32 33 34 35 36 37 37 37 38 38 39 41 42 43 45 47 49 50 50 49 46 42 39 37 35 34 34 34 35 35 35 34 34 36 39 40 40 39 40 42 44 44 43 41 41
Wind_Direction
236 235 233 233 233 231 230 230 231 231 230 231 232 233 232 231 232 231 230 230 230 230 231 234 236 237 237 237 236 236 236 237 238 239 241 242 243 245 246 249 252 255 257 258 260 262 264 266 269 272 275 279 282 285 287 288 288 288 289 291 294 296 297 296 292 290 291 293 295 299 303 307 308 310 313 315 318 320 322 323 322 321 321 319 318
238 237 234 234 235 235 234 234 234 234 234 234 235 236 235 235 236 235 233 234 235 235 235 235 237 238 238 237 236 235 235 236 236 237 240 241 242 244 246 249 252 255 258 261 263 265 265 267 269 273 277 280 284 286 287 288 288 289 290 292 293 294 293 290 287 287 287 287 290 298 303 305 308 311 314 316 318 321 322 321 319 319 319 317 315
237 237 235 235 237 238 238 238 238 238 237 236 237 237 236 236 238 237 236 237 238 238 239 239 238 239 239 237 235 235 234 234 235 236 239 242 244 247 249 252 255 258 260 262 264 265 266 268 272 275 279 282 284 286 286 287 290 290 291 292 292 291 289 286 284 285 285 287 291 296 300 305 309 312 314 317 319 321 321 318 317 317 317 315 313
237 237 237 237 238 240 241 241 242 242 240 239 238 239 238 238 239 239 239 240 240 240 241 242 241 241 240 238 236 235 235 235 237 238 241 245 247 250 254 256 258 260 261 262 263 265 267 271 275 278 280 282 284 285 284 287 291 292 292 292 290 288 285 284 283 284 287 289 293 297 301 305 308 311 314 316 317 318 319 318 317 315 314 314 312
238 239 238 239 241 242 243 243 243 243 242 241 240 241 241 241 241 241 241 241 241 241 241 242 242 242 242 241 239 238 238 239 242 244 246 249 251 254 256 257 259 260 262 263 263 265 269 273 276 277 279 281 283 284 285 288 291 293 292 291 288 284 282 282 283 285 288 292 297 302 304 306 310 313 313 313 314 315 316 317 317 314 313 313 312
238 240 240 241 242 244 245 244 244 244 243 243 242 242 243 243 243 242 242 242 242 242 241 241 242 243 244 244 244 244 244 244 247 249 251 252 253 254 255 256 257 259 261 263 265 267 271 273 275 276 278 280 282 284 285 287 289 291 292 289 285 281 281 282 283 285 290 296 302 305 307 310 313 314 314 313 313 314 314 314 314 313 311 310 310
238 240 241 242 243 244 246 247 247 246 245 245 244 244 244 244 243 243 243 243 242 242 241 241 242 242 244 246 247 247 247 247 248 249 250 251 252 253 254 255 257 259 261 264 266 269 271 273 273 274 276 279 281 283 285 285 288 290 291 287 282 279 280 280 282 286 292 298 303 306 308 311 314 315 316 317 317 317 316 315 313 312 311 309 309
240 240 241 243 244 245 248 249 249 248 247 246 246 245 245 244 244 243 244 243 242 242 242 242 243 243 244 245 247 247 248 248 248 248 250 250 251 252 254 256 258 261 263 264 266 268 270 270 270 272 275 278 281 283 284 285 287 290 289 284 278 275 274 276 280 286 293 298 302 304 308 311 313 314 317 319 321 321 319 317 315 314 313 312 311
240 240 241 242 244 246 248 249 249 248 247 247 246 246 245 244 244 243 243 243 242 242 242 243 244 244 244 245 246 247 248 248 247 248 249 251 252 254 256 258 260 262 263 264 265 266 267 268 269 272 275 277 279 280 282 284 286 288 286 280 273 270 269 273 279 286 293 297 300 304 308 311 313 314 317 320 322 322 320 319 317 316 315 314 313
240 241 240 241 243 244 246 246 247 247 247 248 247 245 245 244 244 244 243 243 243 243 243 243 244 244 244 245 246 247 247 248 248 248 249 252 254 255 257 259 261 262 263 264 265 265 266 268 269 272 274 275 277 278 279 281 284 286 283 276 269 266 267 272 279 286 292 295 300 305 308 310 310 313 316 319 320 321 320 318 317 316 315 315 314
238 241 240 240 242 243 245 245 245 247 247 248 248 247 246 246 246 246 245 245 245 244 244 243 243 244 245 246 246 247 248 248 249 249 250 252 255 257 259 261 262 263 264 264 265 265 266 267 269 271 273 274 276 277 278 280 283 283 278 270 264 264 267 272 280 286 290 294 299 303 305 306 308 312 315 318 319 319 317 316 315 314 313 313 312
237 240 240 239 240 241 242 244 245 247 248 248 250 250 249 248 248 248 247 247 247 247 246 246 245 245 246 247 247 247 248 248 249 250 250 252 254 257 258 260 262 263 264 264 265 265 265 266 268 270 272 274 275 276 277 279 281 279 272 264 261 263 267 274 281 285 289 294 298 300 301 302 306 311 314 316 317 316 315 314 313 311 310 310 310
237 237 239 238 239 240 240 243 245 247 249 249 249 250 251 251 250 249 248 248 249 249 249 249 248 248 248 248 248 248 249 249 250 250 251 252 253 255 257 260 262 263 264 264 264 263 263 264 266 269 272 274 274 274 276 278 278 274 265 261 260 262 267 274 280 285 289 293 295 296 297 300 306 310 313 314 315 314 313 311 310 308 308 309 311
237 236 237 238 238 240 240 242 245 248 249 248 248 249 251 252 252 251 249 249 249 249 250 250 250 250 250 250 250 250 250 250 251 251 252 253 254 255 257 259 260 262 263 263 262 262 262 263 265 268 271 271 271 272 274 276 274 267 260 257 257 261 267 274 278 283 287 291 292 293 295 300 306 310 313 313 313 312 311 309 308 307 308 309 311
239 236 236 237 239 239 240 241 243 246 247 247 247 248 250 252 254 254 253 251 250 249 249 250 251 252 252 252 252 252 252 252 252 252 253 253 254 255 256 257 259 261 261 261 261 261 262 264 265 268 269 269 269 271 272 273 269 261 255 254 256 261 267 273 277 282 286 288 289 291 296 302 307 311 312 312 311 310 309 308 308 308 309 311 312
241 238 235 236 238 239 240 240 242 244 245 246 247 249 251 253 254 256 256 255 253 252 251 250 251 252 252 253 254 254 254 254 253 254 254 255 255 256 256 257 258 259 259 259 260 261 262 264 266 267 267 267 268 270 271 271 264 256 252 252 256 261 268 272 276 281 284 286 288 292 298 304 309 311 311 311 310 309 308 308 309 310 311 312 314
245 242 238 236 238 240 241 241 242 244 245 246 247 249 251 252 254 255 256 257 256 254 253 252 251 251 252 252 253 254 254 255 255 255 256 255 255 256 256 256 257 258 259 259 259 261 262 264 265 266 266 266 267 268 269 266 257 251 250 252 257 263 268 272 276 281 283 285 288 295 301 306 309 310 310 310 309 309 309 310 311 312 312 313 315
245 243 239 236 236 238 240 241 242 243 244 246 247 248 249 250 252 253 255 257 257 256 255 254 253 252 252 253 254 255 255 256 256 256 256 255 256 256 256 257 258 258 259 259 259 261 262 264 264 264 265 266 266 267 266 260 252 248 249 252 258 263 267 272 277 281 282 285 291 298 303 307 308 309 309 309 309 309 311 312 313 313 313 314 316
241 239 236 234 235 236 238 239 241 241 242 244 246 248 248 249 251 252 253 255 257 257 256 256 255 254 254 254 254 255 256 256 256 256 256 256 256 257 257 258 259 259 259 259 259 260 261 261 261 262 264 265 266 266 262 254 247 246 249 253 258 263 268 274 278 280 282 287 294 300 304 306 308 308 309 309 310 311 313 315 314 313 313 314 316
241 237 233 231 232 236 237 238 240 241 242 243 245 247 248 249 250 251 252 253 256 257 257 257 257 257 256 256 255 256 257 257 257 257 257 257 257 258 258 259 259 259 260 260 259 260 260 259 259 261 264 265 265 263 257 248 245 246 249 254 259 264 271 275 277 280 284 290 296 301 304 306 307 308 309 310 312 314 315 316 315 314 314 315 316
241 238 234 231 232 237 239 239 240 241 242 244 245 246 247 249 251 251 252 253 255 257 257 257 257 258 258 258 258 257 257 258 258 258 258 258 259 259 259 259 259 260 260 260 259 259 259 259 259 262 264 264 263 259 250 244 243 246 250 255 261 268 273 276 277 281 286 292 297 301 304 306 307 309 310 311 313 315 316 317 315 314 314 314 315
242 244 241 237 235 237 240 241 240 241 243 244 245 246 247 249 252 253 253 253 255 256 255 255 255 257 258 259 258 257 257 257 257 258 258 259 259 259 259 260 259 259 260 259 258 258 258 259 260 262 263 262 259 251 244 241 243 246 252 257 264 271 274 275 278 283 288 293 297 301 303 305 308 309 311 312 313 316 317 317 315 313 313 314 316
242 247 249 248 245 242 242 243 243 243 243 244 245 246 247 249 252 254 253 253 254 254 253 253 253 256 257 259 259 258 257 257 257 258 258 258 259 259 259 259 259 259 259 258 258 257 256 258 261 262 262 259 252 244 239 240 243 248 254 260 267 271 273 276 280 284 289 293 297 300 302 305 308 310 311 312 313 316 317 317 315 313 313 314 315
241 247 248 250 253 251 248 247 247 247 246 246 247 248 249 252 254 255 255 254 254 253 252 253 254 256 258 259 259 259 258 258 259 259 259 259 259 260 260 260 259 259 258 258 258 257 257 259 261 261 258 253 244 238 237 240 244 250 256 263 268 272 274 277 281 285 289 292 296 299 302 305 308 309 310 311 313 316 317 316 315 313 313 314 315
243 248 249 249 252 255 253 252 251 251 251 251 252 253 254 255 256 257 258 256 255 254 253 254 255 256 257 258 259 259 259 259 259 259 260 260 260 261 261 261 261 261 259 258 258 259 258 258 259 256 251 244 237 235 237 241 246 252 259 265 269 272 275 277 281 284 287 291 295 298 302 305 307 307 308 310 313 315 315 315 314 313 312 313 315
246 248 252 252 252 253 254 254 254 253 253 254 254 255 255 256 256 257 257 257 256 256 255 255 256 256 257 258 258 259 259 259 259 259 259 259 260 260 261 261 261 260 260 259 258 257 256 255 253 249 241 234 232 234 237 242 248 255 261 266 270 272 274 277 280 283 286 290 294 298 301 303 304 306 307 309 312 314 314 313 312 311 311 312 314
246 245 247 248 247 246 248 251 252 253 254 255 255 255 255 254 255 255 256 256 256 257 257 257 258 257 257 258 258 258 258 257 257 257 258 258 258 259 259 260 259 259 258 257 255 253 252 250 245 239 232 230 231 234 239 245 251 258 263 266 269 271 274 276 278 281 285 289 294 297 299 301 302 304 306 308 311 312 312 311 309 309 310 312 314
240 237 236 242 245 245 246 249 252 254 255 255 255 255 254 253 253 253 254 254 254 255 256 256 257 257 257 257 256 256 256 256 257 257 257 257 257 257 258 258 259 257 255 252 251 249 246 242 236 230 227 229 232 237 242 249 254 259 263 266 268 271 272 274 277 280 284 289 293 295 297 299 301 303 305 307 308 310 310 309 307 308 310 312 313
228 228 225 226 236 242 246 249 253 254 255 256 257 256 256 255 253 253 253 253 253 254 254 254 255 255 256 256 256 256 256 257 257 257 257 257 256 255 255 255 256 253 249 247 246 242 237 232 228 226 227 230 235 240 246 251 256 260 263 265 268 270 271 274 276 280 284 289 291 293 295 297 300 303 304 305 306 308 308 306 306 308 311 312 313
219 226 226 222 222 230 241 248 253 256 257 258 260 260 261 261 261 261 259 257 256 255 255 255 255 256 256 256 256 257 257 257 256 256 256 255 254 253 251 251 251 248 244 242 239 234 228 224 224 226 229 233 238 244 248 253 257 260 262 265 267 269 272 274 277 281 284 287 289 291 294 297 299 302 303 303 304 306 306 305 306 309 311 312 312
222 228 235 235 231 233 242 251 255 257 256 259 263 264 266 269 270 272 270 267 265 262 261 261 260 260 259 258 258 257 256 256 255 254 253 252 251 249 247 246 245 242 238 234 230 226 224 223 225 228 232 237 242 246 250 254 257 260 262 265 268 270 273 275 277 280 283 286 288 290 293 296 298 301 302 302 303 304 304 305 307 310 311 312 312
223 228 239 243 241 240 244 250 254 256 256 259 263 265 269 273 274 274 276 277 276 273 271 269 266 264 261 259 258 256 255 254 252 251 249 247 245 244 242 240 238 234 231 228 225 224 224 226 229 232 237 241 245 249 253 255 258 260 263 266 269 271 272 274 277 280 282 284 287 290 292 295 297 299 300 301 302 302 303 305 308 310 312 312 312
226 234 243 248 247 244 245 248 251 254 257 260 263 266 270 274 275 276 278 279 279 278 277 275 271 266 262 259 256 254 253 251 249 247 245 242 240 238 236 233 230 228 226 225 225 226 228 230 233 238 241 245 248 252 254 256 259 261 264 267 269 271 272 274 276 279 281 283 286 289 291 294 296 298 299 300 301 301 303 307 310 311 312 312 313
231 236 240 245 248 245 245 250 253 255 258 262 266 270 273 274 275 276 277 279 281 281 281 280 277 271 264 258 253 251 248 245 243 241 239 236 234 232 229 227 226 226 226 227 229 230 233 236 239 242 245 248 251 253 256 257 260 262 265 267 269 271 272 274 276 278 280 282 285 288 290 292 294 296 299 300 300 301 305 309 311 311 312 313 314
233 235 237 241 245 245 248 253 255 258 260 262 265 269 272 275 277 276 277 278 280 282 283 283 281 277 270 261 251 246 242 238 236 235 233 232 230 230 229 228 229 229 230 232 234 236 238 241 244 246 248 250 253 255 257 258 261 263 266 268 270 271 273 274 276 278 280 282 285 287 289 290 292 295 298 299 299 303 308 311 311 310 311 313 316
235 238 240 240 240 242 251 258 256 255 256 256 260 266 270 276 279 278 278 278 277 279 281 282 281 277 271 263 252 244 238 235 233 232 233 233 233 233 233 233 234 234 235 237 238 240 243 245 247 249 250 252 254 256 258 260 262 265 266 268 269 271 272 274 275 277 279 282 284 286 287 289 292 295 297 297 299 305 310 311 310 310 311 314 316
240 242 243 242 238 238 249 258 257 256 258 259 262 268 273 278 279 278 278 278 276 277 278 279 278 273 266 259 249 242 238 234 233 233 234 236 237 238 238 238 239 241 242 243 244 246 247 249 250 252 253 254 256 257 259 261 263 265 266 267 269 270 271 273 274 276 279 282 283 285 286 289 292 294 295 296 301 308 311 310 309 310 311 314 316
246 243 242 242 239 237 244 254 256 258 262 264 268 275 279 278 274 272 272 273 274 275 277 279 278 270 263 256 250 245 242 238 236 236 236 239 240 242 243 244 245 246 247 248 249 250 251 252 253 254 255 256 257 258 260 262 263 264 265 266 268 269 271 272 274 277 279 281 283 284 286 288 291 292 293 298 305 310 310 310 309 309 310 312 315
246 243 240 239 237 236 242 251 255 256 261 267 272 276 275 271 267 266 267 268 271 273 274 275 274 270 265 260 255 252 248 245 243 241 240 242 243 244 246 247 248 249 249 250 251 252 253 254 255 256 256 257 258 259 260 261 262 263 265 266 267 269 270 272 275 277 279 280 281 283 285 289 290 291 294 301 307 310 310 310 309 309 309 311 313
245 244 241 238 236 237 241 248 252 256 261 268 271 270 266 262 262 264 265 267 268 268 268 269 269 269 268 266 262 258 255 251 248 245 244 244 244 245 247 248 250 251 252 253 254 254 255 256 257 257 258 258 258 259 260 261 262 263 264 265 266 268 270 273 275 277 278 279 280 282 286 289 289 291 297 304 309 310 310 311 310 309 309 310 313
242 243 244 242 240 241 244 249 253 257 261 263 262 260 258 258 261 263 265 266 266 266 265 264 264 263 262 261 261 260 258 255 252 251 250 249 248 248 248 249 251 252 253 254 256 256 257 258 259 259 259 258 258 259 260 260 261 262 263 264 266 268 271 273 274 275 277 277 279 283 287 288 288 293 301 306 310 311 310 311 311 309 308 310 313
238 241 244 245 244 243 243 246 249 252 253 253 254 255 257 260 262 264 265 266 267 267 267 265 263 262 259 258 259 259 260 259 258 257 255 253 251 250 249 250 250 252 254 255 257 258 259 259 260 260 259 259 259 259 260 260 261 262 263 265 267 269 271 272 273 274 274 275 280 285 287 286 290 298 305 310 312 310 309 310 310 309 308 309 313
238 241 243 245 245 243 242 244 245 248 251 253 256 258 260 262 264 265 267 269 269 269 269 268 267 265 262 260 258 257 257 257 256 256 254 253 252 251 251 251 252 253 255 256 257 258 259 260 260 260 259 259 258 259 259 260 261 262 263 265 268 269 270 270 271 271 272 276 283 286 284 285 294 303 310 313 312 309 308 309 310 309 307 308 312
239 241 242 244 245 245 246 248 249 252 255 257 259 261 262 264 266 268 270 270 270 270 270 269 268 266 264 262 259 257 256 255 254 254 254 254 254 254 254 255 255 255 256 257 258 259 260 260 260 260 259 259 259 259 260 260 261 262 264 266 267 268 268 268 268 269 272 280 285 284 281 286 298 307 313 314 311 308 309 310 309 308 307 307 311
239 240 241 243 245 246 247 249 251 253 255 257 259 262 264 266 268 269 270 270 269 269 268 267 266 265 264 262 260 259 257 256 255 255 255 256 256 257 257 258 258 258 258 258 259 259 260 260 261 260 260 259 260 260 260 260 261 262 264 266 266 265 265 265 266 269 277 284 284 280 280 288 300 309 313 312 310 309 311 311 309 307 306 306 309
235 236 238 240 243 246 248 249 251 254 256 258 260 262 264 266 266 267 267 267 266 265 263 262 262 261 261 261 260 259 259 258 258 258 258 259 259 260 260 260 259 259 259 259 259 259 259 260 260 260 260 260 260 260 260 260 261 263 264 264 263 263 263 265 268 275 281 284 280 277 281 291 302 308 309 309 309 310 311 311 309 307 305 305 306
226 228 231 235 238 242 246 249 251 255 257 259 261 262 264 265 265 265 266 266 266 265 264 262 260 259 259 258 258 259 259 259 260 261 261 262 262 262 263 262 263 263 262 261 260 259 259 259 260 261 261 261 261 261 260 260 262 263 264 263 263 263 264 267 273 280 282 281 278 278 282 292 302 304 302 304 308 308 309 311 309 307 304 302 303
225 227 230 235 238 242 246 250 253 256 258 261 263 264 264 265 264 265 265 265 265 266 265 265 263 261 260 259 258 258 258 259 260 260 261 262 263 263 264 265 265 265 264 263 262 260 260 260 259 260 260 260 260 260 261 263 264 265 265 264 264 265 267 272 278 281 280 278 278 278 282 294 301 299 296 301 304 305 306 309 309 306 303 300 301
235 237 239 241 244 247 251 253 256 259 260 262 264 264 265 266 266 266 266 266 267 267 267 267 266 264 263 261 260 259 259 259 259 260 260 261 261 262 263 264 265 265 265 264 263 261 259 256 254 254 254 255 256 258 260 262 263 262 263 263 264 267 273 278 280 278 275 276 278 278 282 293 299 296 296 300 301 301 304 307 307 305 302 299 299
243 247 250 253 255 255 255 256 258 259 260 262 263 264 265 266 267 269 271 273 273 273 272 271 270 269 268 267 266 265 264 264 264 264 264 265 264 265 265 264 264 264 265 265 264 262 258 254 252 252 252 253 254 254 254 256 257 258 261 264 268 273 278 278 276 273 272 275 278 278 281 290 296 297 297 297 297 298 302 304 305 305 302 299 298
243 247 252 255 256 258 258 258 258 259 260 261 263 265 267 268 270 272 274 275 276 276 276 275 275 275 275 275 274 273 272 271 270 269 268 268 267 266 265 264 264 263 263 263 263 261 258 255 253 252 252 253 254 254 254 257 259 262 266 270 274 277 277 274 272 271 272 274 278 280 282 288 294 295 294 294 294 296 299 301 302 303 302 299 298
Height
3182 3183 3184 3184 3185 3186 3187 3187 3188 3188 3189 3190 3190 3191 3192 3193 3193 3194 3195 3195 3195 3196 3196 3197 3198 3198 3199 3200 3201 3201 3201 3201 3201 3202 3202 3202 3202 3202 3202 3202 3202 3202 3203 3203 3203 3203 3203 3202 3202 3202 3201 3201 3200 3199 3199 3198 3197 3196 3195 3194 3194 3193 3192 3191 3190 3190 3189 3188 3188 3187 3186 3186 3184 3183 3181 3180 3179 3177 3175 3174 3172 3170 3168 3166 3164
3178 3179 3181 3182 3182 3183 3184 3185 3185 3186 3187 3187 3188 3189 3190 3191 3191 3191 3192 3192 3193 3194 3195 3195 3196 3197 3197 3198 3199 3199 3199 3199 3199 3199 3199 3199 3199 3199 3199 3200 3200 3200 3201 3201 3201 3201 3201 3200 3200 3200 3199 3198 3198 3197 3197 3196 3195 3194 3193 3192 3191 3190 3190 3189 3189 3188 3188 3187 3187 3186 3185 3184 3183 3181 3180 3178 3177 3176 3174 3172 3171 3169 3167 3165 3162
3174 3176 3177 3179 3179 3180 3181 3182 3183 3183 3184 3185 3185 3186 3187 3188 3188 3189 3190 3190 3191 3192 3192 3193 3194 3195 3195 3195 3196 3195 3195 3195 3195 3195 3195 3195 3196 3197 3197 3198 3198 3198 3198 3199 3199 3198 3198 3198 3198 3197 3197 3196 3196 3195 3194 3194 3193 3192 3191 3190 3189 3188 3187 3187 3187 3186 3186 3186 3186 3185 3184 3183 3182 3180 3178 3177 3175 3174 3173 3171 3169 3167 3166 3163 3161
3171 3173 3174 3175 3176 3177 3178 3179 3180 3180 3181 3182 3183 3183 3184 3185 3185 3187 3188 3188 3189 3189 3190 3191 3192 3192 3192 3192 3192 3192 3192 3192 3192 3192 3193 3193 3194 3195 3196 3196 3196 3196 3196 3196 3196 3195 3195 3195 3195 3195 3194 3194 3193 3192 3192 3191 3190 3189 3188 3187 3186 3186 3185 3185 3185 3185 3184 3184 3184 3184 3183 3182 3181 3180 3177 3176 3174 3173 3172 3170 3168 3166 3164 3162 3159
3168 3170 3171 3172 3173 3174 3175 3176 3177 3177 3178 3179 3180 3180 3181 3182 3183 3185 3185 3186 3186 3187 3188 3188 3188 3188 3188 3188 3188 3188 3189 3189 3190 3191 3191 3192 3192 3193 3193 3193 3193 3193 3193 3193 3193 3192 3192 3193 3192 3192 3192 3191 3191 3190 3189 3188 3188 3187 3186 3185 3184 3184 3183 3183 3183 3183 3182 3182 3182 3181 3181 3180 3180 3179 3177 3175 3173 3172 3171 3169 3167 3164 3162 3161 3158
3166 3167 3168 3169 3170 3171 3172 3173 3173 3174 3175 3176 3177 3177 3178 3180 3181 3182 3182 3183 3183 3184 3185 3185 3184 3184 3185 3185 3186 3186 3187 3187 3188 3190 3190 3190 3190 3190 3190 3189 3189 3189 3189 3189 3189 3190 3190 3190 3190 3189 3189 3188 3188 3187 3186 3186 3185 3185 3184 3183 3182 3181 3181 3181 3181 3181 3180 3180 3179 3178 3178 3177 3177 3176 3175 3174 3172 3170 3169 3168 3166 3163 3161 3159 3157
3163 3164 3165 3166 3167 3168 3168 3169 3170 3171 3173 3173 3173 3174 3175 3176 3177 3178 3179 3179 3180 3181 3181 3181 3180 3181 3182 3182 3183 3183 3184 3185 3186 3186 3186 3186 3186 3185 3185 3185 3186 3186 3186 3187 3187 3187 3187 3187 3187 3187 3186 3186 3185 3185 3184 3183 3183 3182 3181 3180 3180 3179 3179 3179 3179 3178 3178 3177 3176 3176 3175 3174 3174 3173 3173 3172 3170 3168 3167 3165 3163 3161 3159 3157 3155
3159 3161 3162 3163 3164 3165 3166 3166 3167 3168 3169 3169 3170 3171 3172 3173 3174 3175 3175 3176 3177 3177 3177 3177 3177 3178 3179 3179 3179 3179 3180 3182 3183 3183 3182 3182 3182 3182 3182 3182 3182 3183 3184 3184 3184 3184 3184 3184 3184 3184 3183 3183 3182 3182 3181 3180 3180 3179 3179 3178 3178 3177 3177 3176 3176 3176 3175 3175 3174 3173 3172 3172 3171 3170 3169 3168 3167 3165 3163 3162 3160 3158 3156 3153 3151
3155 3157 3158 3160 3161 3162 3163 3163 3163 3164 3165 3166 3167 3168 3169 3169 3170 3171 3171 3172 3173 3173 3174 3174 3174 3175 3175 3175 3175 3176 3177 3178 3179 3179 3179 3178 3178 3178 3178 3179 3179 3180 3181 3181 3181 3181 3181 3181 3181 3180 3180 3180 3179 3179 3178 3178 3177 3177 3176 3176 3175 3175 3175 3174 3174 3173 3172 3172 3171 3171 3170 3169 3168 3167 3166 3164 3163 3161 3159 3158 3157 3155 3152 3150 3147
3151 3153 3155 3156 3157 3158 3159 3159 3159 3161 3161 3162 3163 3164 3165 3166 3166 3167 3168 3169 3169 3170 3170 3171 3171 3171 3171 3172 3172 3173 3174 3175 3175 3175 3175 3175 3175 3175 3175 3176 3176 3177 3178 3178 3178 3178 3178 3178 3177 3177 3177 3177 3176 3176 3175 3175 3175 3174 3174 3173 3173 3173 3172 3172 3171 3170 3170 3169 3169 3168 3167 3166 3166 3165 3163 3162 3160 3158 3156 3154 3153 3151 3149 3147 3144
3147 3149 3151 3153 3154 3154 3155 3155 3156 3157 3158 3158 3159 3160 3162 3162 3163 3164 3165 3165 3166 3167 3167 3167 3167 3167 3168 3168 3169 3170 3170 3171 3171 3172 3172 3172 3172 3172 3172 3172 3173 3173 3174 3174 3175 3175 3175 3174 3174 3174 3174 3174 3174 3173 3172 3172 3172 3171 3171 3171 3170 3170 3170 3169 3169 3168 3167 3167 3166 3166 3165 3164 3163 3162 3161 3159 3157 3155 3153 3151 3150 3148 3147 3145 3142
3142 3144 3147 3149 3149 3150 3151 3152 3153 3154 3154 3155 3156 3157 3158 3159 3159 3160 3161 3162 3162 3163 3163 3164 3164 3164 3165 3165 3165 3166 3167 3167 3167 3168 3169 3169 3169 3169 3168 3168 3169 3170 3170 3171 3171 3171 3171 3171 3170 3170 3170 3170 3170 3170 3169 3169 3169 3168 3168 3168 3168 3168 3167 3167 3166 3165 3165 3164 3163 3163 3162 3162 3161 3160 3158 3157 3155 3153 3151 3149 3147 3146 3144 3142 3140
3137 3139 3142 3144 3145 3146 3148 3149 3150 3150 3151 3152 3153 3153 3154 3155 3155 3156 3157 3158 3159 3159 3160 3161 3161 3161 3162 3162 3162 3163 3163 3163 3164 3164 3165 3165 3165 3165 3165 3165 3165 3166 3166 3167 3168 3168 3168 3168 3167 3167 3167 3167 3167 3166 3166 3166 3165 3165 3165 3165 3165 3165 3165 3164 3164 3163 3162 3161 3161 3160 3160 3159 3158 3157 3156 3154 3152 3150 3148 3146 3144 3143 3141 3139 3137
3132 3135 3137 3139 3141 3143 3144 3145 3146 3146 3147 3148 3149 3149 3150 3150 3151 3152 3153 3154 3154 3155 3156 3157 3157 3158 3158 3158 3158 3159 3159 3159 3160 3160 3161 3161 3161 3161 3161 3162 3161 3162 3163 3163 3164 3164 3164 3164 3164 3164 3164 3164 3163 3163 3163 3163 3162 3162 3162 3162 3163 3162 3162 3162 3161 3160 3160 3159 3158 3158 3157 3156 3155 3154 3152 3151 3149 3147 3145 3143 3141 3139 3137 3135 3133
3127 3129 3132 3134 3136 3138 3139 3141 3142 3143 3144 3144 3145 3145 3145 3146 3147 3148 3149 3150 3150 3151 3152 3152 3153 3154 3154 3154 3155 3155 3155 3155 3156 3156 3156 3157 3157 3157 3158 3158 3158 3158 3159 3160 3160 3160 3160 3161 3161 3161 3161 3160 3160 3160 3160 3159 3159 3159 3159 3160 3160 3160 3159 3159 3158 3158 3157 3156 3155 3155 3154 3153 3152 3150 3149 3147 3145 3144 3142 3140 3138 3135 3133 3131 3129
3121 3123 3126 3128 3130 3132 3134 3135 3137 3138 3139 3140 3141 3141 3142 3142 3143 3144 3145 3146 3146 3147 3148 3149 3149 3149 3149 3150 3150 3150 3150 3151 3151 3152 3152 3153 3153 3153 3154 3154 3154 3155 3155 3156 3156 3156 3156 3157 3157 3157 3157 3157 3157 3156 3156 3156 3156 3156 3156 3157 3157 3157 3156 3156 3156 3155 3154 3154 3153 3152 3151 3149 3148 3147 3145 3144 3142 3140 3138 3136 3134 3131 3129 3126 3124
3116 3117 3120 3123 3124 3126 3128 3130 3132 3133 3134 3135 3137 3137 3138 3138 3139 3140 3141 3141 3142 3143 3144 3144 3145 3145 3145 3146 3146 3146 3146 3146 3147 3148 3148 3148 3148 3148 3149 3150 3150 3151 3152 3153 3153 3152 3152 3153 3153 3153 3153 3153 3153 3153 3153 3153 3153 3153 3153 3154 3154 3154 3154 3153 3153 3152 3152 3151 3150 3149 3147 3146 3144 3143 3142 3140 3138 3137 3135 3133 3130 3128 3125 3123 3120
3111 3113 3115 3117 3119 3121 3122 3124 3126 3128 3129 3130 3132 3132 3133 3134 3134 3135 3136 3136 3137 3138 3139 3140 3140 3140 3141 3141 3141 3141 3142 3142 3142 3143 3143 3143 3143 3144 3145 3145 3146 3147 3148 3149 3149 3148 3149 3149 3149 3149 3149 3150 3150 3149 3149 3149 3149 3150 3150 3151 3151 3151 3151 3150 3150 3149 3149 3148 3147 3146 3144 3142 3141 3140 3138 3137 3135 3133 3131 3129 3127 3124 3122 3119 3116
3106 3108 3110 3111 3113 3116 3117 3119 3121 3123 3124 3125 3126 3127 3128 3129 3130 3130 3131 3131 3132 3132 3133 3134 3135 3136 3136 3137 3137 3137 3137 3138 3138 3138 3138 3138 3139 3139 3140 3141 3142 3143 3144 3145 3145 3144 3145 3145 3145 3145 3145 3146 3146 3145 3145 3146 3146 3147 3147 3148 3148 3148 3147 3147 3147 3146 3146 3145 3144 3142 3141 3139 3138 3136 3135 3133 3131 3129 3127 3125 3123 3120 3118 3116 3113
3102 3104 3105 3106 3108 3110 3112 3114 3116 3118 3119 3120 3121 3122 3123 3124 3125 3125 3126 3126 3126 3127 3128 3129 3130 3131 3132 3132 3132 3133 3133 3133 3133 3133 3133 3134 3134 3135 3136 3136 3137 3138 3139 3140 3140 3140 3140 3141 3142 3142 3141 3142 3141 3141 3142 3142 3143 3143 3144 3144 3144 3145 3144 3144 3144 3143 3143 3142 3141 3139 3137 3136 3135 3133 3131 3130 3127 3125 3123 3121 3119 3116 3114 3112 3110
3099 3099 3100 3102 3104 3105 3107 3109 3111 3112 3114 3115 3116 3117 3118 3119 3120 3121 3121 3121 3121 3122 3123 3124 3124 3125 3126 3127 3128 3128 3128 3128 3128 3128 3129 3129 3130 3130 3131 3132 3133 3134 3134 3135 3136 3136 3136 3137 3137 3138 3138 3137 3137 3138 3138 3138 3139 3140 3141 3141 3141 3141 3141 3141 3141 3140 3140 3139 3137 3136 3134 3133 3131 3129 3128 3126 3124 3121 3119 3117 3115 3112 3111 3108 3106
3096 3096 3097 3098 3099 3101 3103 3104 3106 3107 3108 3110 3111 3112 3113 3114 3115 3115 3116 3116 3116 3117 3117 3118 3119 3120 3120 3121 3122 3122 3123 3123 3123 3123 3124 3124 3125 3126 3126 3127 3128 3129 3130 3130 3131 3132 3132 3132 3133 3133 3133 3134 3134 3134 3134 3135 3136 3137 3137 3137 3138 3138 3138 3137 3137 3137 3136 3135 3133 3132 3131 3129 3127 3125 3124 3122 3120 3118 3115 3113 3111 3109 3107 3105 3102
3093 3093 3093 3094 3095 3097 3098 3099 3101 3102 3103 3105 3106 3107 3108 3108 3109 3110 3110 3111 3111 3112 3112 3112 3113 3114 3115 3116 3116 3117 3117 3117 3118 3118 3119 3120 3120 3121 3122 3123 3124 3124 3125 3126 3126 3127 3128 3128 3129 3129 3129 3130 3130 3130 3131 3132 3133 3133 3134 3134 3134 3134 3134 3134 3134 3133 3132 3131 3130 3129 3127 3125 3123 3121 3120 3118 3116 3114 3112 3109 3107 3105 3103 3101 3099
3089 3089 3090 3091 3092 3093 3094 3095 3096 3097 3098 3100 3100 3102 3103 3103 3104 3105 3105 3106 3106 3107 3107 3108 3108 3109 3109 3110 3110 3111 3111 3112 3113 3113 3114 3114 3115 3116 3117 3118 3119 3119 3120 3121 3121 3122 3124 3124 3124 3125 3125 3125 3126 3127 3128 3129 3129 3130 3130 3130 3130 3130 3130 3130 3130 3129 3128 3127 3126 3125 3123 3121 3119 3118 3116 3114 3112 3110 3108 3106 3103 3101 3099 3097 3095
3086 3086 3087 3088 3089 3090 3091 3092 3092 3093 3094 3095 3096 3097 3098 3099 3100 3101 3101 3102 3102 3103 3103 3103 3104 3104 3104 3105 3105 3105 3106 3106 3107 3108 3108 3109 3110 3111 3111 3112 3113 3113 3114 3116 3116 3117 3119 3119 3119 3120 3121 3122 3123 3124 3125 3126 3126 3127 3127 3127 3127 3127 3127 3127 3126 3125 3124 3123 3122 3120 3119 3117 3115 3114 3112 3110 3108 3106 3104 3102 3099 3097 3095 3093 3091
3083 3083 3084 3085 3086 3087 3087 3088 3089 3089 3090 3091 3091 3092 3093 3094 3095 3096 3097 3097 3098 3098 3098 3098 3099 3099 3099 3099 3100 3100 3101 3101 3102 3102 3103 3104 3104 3105 3106 3107 3108 3108 3109 3110 3111 3112 3113 3114 3115 3115 3116 3118 3119 3120 3121 3122 3123 3123 3123 3123 3123 3123 3123 3123 3122 3121 3120 3119 3118 3116 3114 3113 3111 3110 3108 3106 3104 3102 3100 3098 3095 3093 3091 3089 3087
3081 3081 3081 3082 3082 3083 3084 3084 3085 3086 3086 3087 3088 3088 3089 3090 3090 3091 3092 3093 3093 3093 3093 3094 3094 3094 3094 3095 3095 3096 3096 3096 3097 3097 3098 3098 3099 3100 3100 3101 3102 3103 3104 3105 3106 3107 3108 3109 3110 3111 3113 3114 3115 3117 3118 3119 3119 3119 3119 3120 3119 3119 3119 3119 3118 3117 3116 3115 3113 3112 3110 3109 3107 3106 3104 3102 3100 3098 3096 3093 3091 3089 3087 3085 3083
3080 3080 3079 3079 3080 3081 3081 3082 3082 3083 3083 3084 3084 3085 3085 3085 3086 3086 3086 3087 3088 3088 3088 3089 3089 3089 3090 3090 3091 3091 3091 3091 3092 3092 3093 3093 3094 3095 3095 3096 3097 3098 3099 3100 3101 3102 3103 3104 3106 3107 3109 3111 3112 3114 3115 3115 3115 3116 3116 3116 3115 3115 3115 3114 3114 3113 3112 3110 3109 3107 3106 3105 3103 3101 3100 3098 3095 3093 3091 3089 3087 3085 3083 3081 3078
3078 3078 3077 3078 3078 3078 3079 3079 3080 3080 3080 3080 3081 3081 3081 3082 3082 3082 3082 3082 3082 3083 3083 3084 3084 3084 3085 3085 3085 3086 3086 3087 3087 3087 3088 3088 3089 3090 3091 3091 3092 3093 3094 3095 3096 3098 3099 3101 3103 3104 3106 3108 3109 3111 3111 3112 3112 3112 3112 3111 3111 3111 3111 3110 3109 3108 3107 3106 3104 3103 3102 3100 3099 3097 3095 3093 3091 3089 3087 3085 3083 3081 3079 3077 3074
3075 3076 3076 3076 3076 3076 3076 3077 3077 3077 3077 3078 3078 3078 3078 3078 3078 3078 3078 3078 3078 3079 3079 3079 3079 3080 3080 3080 3080 3081 3081 3082 3082 3082 3083 3083 3084 3085 3086 3087 3088 3089 3090 3091 3093 3094 3096 3098 3100 3102 3104 3105 3107 3107 3108 3108 3108 3108 3108 3107 3107 3107 3106 3106 3105 3104 3103 3101 3100 3099 3098 3096 3095 3093 3091 3089 3087 3085 3083 3081 3079 3077 3075 3072 3069
3073 3074 3074 3074 3074 3073 3074 3074 3074 3074 3074 3075 3075 3075 3075 3075 3075 3075 3075 3075 3075 3075 3075 3075 3075 3076 3076 3076 3076 3077 3077 3077 3078 3078 3079 3079 3080 3081 3082 3083 3084 3085 3087 3088 3090 3092 3094 3096 3098 3100 3101 3103 3103 3104 3104 3104 3104 3104 3103 3103 3103 3103 3102 3101 3100 3099 3098 3097 3096 3095 3093 3092 3090 3088 3087 3085 3083 3081 3079 3077 3075 3072 3070 3067 3065
3070 3071 3071 3072 3072 3071 3071 3071 3071 3071 3071 3071 3071 3072 3072 3072 3072 3072 3072 3073 3072 3072 3072 3072 3072 3072 3072 3072 3073 3073 3073 3074 3074 3074 3075 3076 3077 3078 3079 3080 3081 3083 3084 3086 3088 3090 3092 3094 3096 3097 3099 3099 3100 3100 3100 3100 3100 3100 3100 3099 3099 3098 3097 3097 3096 3095 3094 3093 3092 3090 3089 3087 3085 3084 3082 3080 3078 3076 3074 3072 3070 3068 3065 3063 3060
3066 3067 3068 3069 3069 3069 3068 3068 3068 3068 3068 3068 3069 3069 3070 3069 3069 3069 3069 3069 3069 3069 3069 3069 3069 3069 3069 3069 3069 3069 3070 3070 3071 3071 3072 3073 3074 3075 3076 3077 3079 3081 3082 3084 3086 3088 3090 3091 3093 3094 3095 3096 3096 3096 3096 3096 3096 3096 3096 3095 3094 3094 3093 3092 3091 3090 3089 3088 3087 3086 3084 3082 3081 3079 3077 3076 3074 3072 3070 3068 3066 3064 3061 3058 3055
3060 3061 3063 3064 3065 3065 3065 3065 3065 3065 3065 3066 3066 3067 3067 3067 3067 3067 3067 3066 3066 3066 3066 3066 3067 3067 3067 3067 3067 3067 3067 3068 3068 3069 3070 3071 3072 3073 3075 3076 3078 3079 3081 3082 3084 3085 3087 3089 3090 3091 3092 3092 3092 3092 3092 3092 3092 3092 3091 3091 3090 3089 3088 3088 3087 3086 3085 3084 3082 3081 3079 3078 3076 3075 3073 3071 3070 3068 3066 3064 3062 3059 3057 3054 3051
3055 3055 3057 3059 3061 3062 3061 3061 3062 3062 3063 3063 3063 3064 3064 3064 3064 3064 3064 3064 3064 3064 3064 3064 3064 3064 3064 3064 3065 3065 3066 3066 3067 3068 3069 3070 3071 3072 3074 3075 3076 3078 3079 3080 3082 3083 3084 3085 3086 3087 3087 3088 3088 3088 3088 3088 3088 3088 3087 3086 3085 3085 3084 3083 3082 3081 3080 3079 3077 3076 3075 3073 3072 3070 3069 3067 3066 3064 3062 3060 3058 3056 3053 3050 3047
3051 3051 3052 3055 3057 3058 3057 3058 3058 3059 3060 3060 3060 3061 3061 3061 3061 3061 3061 3061 3061 3061 3061 3061 3061 3061 3062 3062 3063 3063 3064 3065 3066 3067 3068 3069 3070 3071 3073 3074 3075 3076 3077 3078 3079 3080 3081 3082 3082 3083 3083 3084 3084 3084 3084 3084 3084 3083 3082 3082 3081 3080 3079 3078 3077 3076 3075 3074 3073 3071 3070 3069 3067 3066 3065 3063 3062 3060 3058 3056 3054 3052 3049 3046 3044
3046 3047 3048 3050 3052 3053 3053 3054 3054 3055 3056 3057 3057 3058 3058 3058 3058 3058 3058 3058 3058 3058 3059 3058 3059 3059 3059 3060 3061 3061 3062 3063 3064 3065 3066 3068 3069 3070 3071 3072 3073 3074 3075 3076 3076 3077 3077 3078 3078 3079 3079 3079 3080 3080 3080 3079 3079 3078 3077 3077 3076 3075 3075 3074 3073 3071 3070 3069 3068 3067 3065 3064 3063 3062 3061 3059 3057 3056 3054 3052 3050 3048 3045 3043 3041
3042 3042 3043 3045 3047 3047 3048 3049 3050 3051 3052 3053 3054 3055 3055 3056 3056 3056 3056 3055 3055 3056 3056 3056 3056 3056 3057 3058 3058 3059 3060 3061 3062 3063 3064 3065 3066 3067 3068 3069 3070 3071 3072 3072 3073 3073 3074 3074 3075 3075 3075 3075 3075 3075 3075 3075 3074 3073 3072 3072 3071 3070 3070 3069 3068 3067 3066 3065 3063 3062 3061 3060 3059 3058 3056 3055 3053 3051 3050 3048 3046 3044 3042 3039 3037
3037 3037 3037 3039 3040 3042 3043 3045 3047 3048 3049 3050 3051 3051 3052 3053 3053 3053 3053 3053 3053 3053 3053 3053 3053 3054 3054 3055 3056 3057 3058 3059 3059 3060 3061 3062 3063 3064 3065 3066 3067 3067 3068 3069 3069 3069 3070 3070 3070 3070 3071 3071 3071 3071 3070 3070 3069 3068 3068 3067 3066 3066 3065 3064 3063 3062 3061 3060 3059 3058 3057 3056 3055 3053 3052 3050 3048 3047 3046 3044 3042 3040 3038 3036 3034
3033 3033 3033 3034 3035 3037 3039 3041 3043 3044 3045 3046 3047 3048 3049 3049 3050 3050 3050 3051 3051 3051 3051 3051 3051 3052 3053 3053 3053 3054 3055 3055 3056 3057 3057 3058 3059 3060 3061 3062 3062 3063 3064 3064 3065 3065 3065 3066 3066 3066 3066 3066 3066 3066 3065 3065 3064 3063 3062 3062 3061 3061 3060 3060 3059 3058 3057 3055 3054 3053 3053 3051 3050 3049 3047 3045 3044 3043 3041 3040 3038 3036 3034 3032 3030
3029 3030 3031 3031 3032 3034 3036 3038 3040 3041 3042 3043 3044 3044 3045 3046 3046 3047 3047 3048 3048 3048 3049 3049 3049 3050 3050 3050 3051 3051 3052 3052 3053 3053 3054 3054 3055 3056 3057 3057 3058 3058 3059 3059 3060 3060 3060 3061 3061 3061 3061 3061 3061 3061 3060 3060 3059 3058 3057 3057 3056 3056 3056 3055 3054 3053 3052 3051 3050 3049 3048 3047 3045 3044 3042 3041 3040 3038 3037 3036 3034 3032 3030 3028 3026
3026 3027 3028 3029 3030 3032 3033 3035 3036 3038 3039 3039 3040 3041 3042 3042 3043 3043 3043 3044 3044 3044 3045 3045 3046 3046 3046 3047 3048 3048 3048 3049 3049 3050 3050 3051 3051 3051 3052 3052 3053 3053 3054 3054 3054 3055 3055 3055 3055 3056 3056 3056 3056 3055 3055 3055 3054 3053 3052 3052 3052 3052 3051 3050 3049 3048 3047 3046 3045 3045 3044 3042 3041 3039 3038 3036 3035 3034 3033 3031 3030 3028 3026 3024 3021
3024 3025 3026 3027 3028 3030 3031 3032 3033 3034 3035 3036 3037 3037 3038 3038 3039 3039 3039 3039 3040 3040 3040 3041 3042 3042 3042 3043 3043 3044 3044 3045 3045 3045 3045 3046 3046 3046 3046 3047 3047 3048 3048 3048 3049 3049 3050 3050 3050 3050 3051 3051 3051 3050 3050 3049 3049 3048 3048 3048 3047 3047 3046 3045 3044 3043 3042 3041 3041 3040 3039 3037 3036 3035 3033 3032 3031 3030 3029 3027 3025 3024 3022 3019 3017
3022 3023 3024 3025 3026 3027 3028 3029 3030 3031 3031 3032 3033 3033 3033 3034 3034 3035 3035 3035 3035 3036 3036 3036 3037 3037 3038 3038 3039 3039 3039 3040 3040 3040 3040 3040 3041 3041 3041 3042 3042 3042 3043 3043 3043 3044 3044 3044 3045 3045 3046 3046 3046 3045 3045 3044 3044 3043 3043 3043 3042 3041 3041 3040 3038 3037 3037 3037 3037 3035 3034 3033 3031 3030 3029 3028 3027 3026 3025 3023 3021 3019 3017 3015 3012
3020 3020 3021 3022 3023 3024 3025 3026 3026 3027 3028 3028 3029 3029 3029 3030 3030 3030 3030 3031 3031 3031 3031 3032 3032 3033 3033 3033 3034 3034 3034 3034 3035 3035 3035 3035 3036 3036 3036 3037 3037 3037 3037 3037 3038 3038 3038 3039 3040 3040 3041 3041 3041 3041 3040 3039 3039 3039 3038 3038 3037 3036 3035 3034 3033 3033 3033 3033 3031 3030 3029 3028 3027 3026 3025 3024 3023 3022 3020 3019 3017 3014 3012 3010 3008
3016 3017 3018 3019 3020 3021 3022 3022 3023 3024 3024 3025 3025 3026 3026 3026 3026 3026 3026 3026 3026 3026 3027 3027 3027 3028 3028 3029 3029 3029 3030 3030 3030 3030 3030 3031 3031 3031 3031 3031 3031 3031 3031 3031 3032 3032 3033 3034 3035 3036 3036 3036 3036 3036 3035 3034 3034 3033 3033 3032 3031 3030 3029 3028 3028 3029 3029 3028 3026 3025 3024 3023 3022 3021 3021 3020 3018 3017 3016 3014 3012 3010 3008 3006 3004
3014 3015 3016 3016 3017 3018 3019 3019 3020 3020 3021 3022 3022 3022 3023 3023 3023 3023 3023 3023 3023 3023 3023 3023 3023 3024 3024 3024 3024 3025 3025 3025 3026 3026 3026 3026 3026 3026 3026 3025 3026 3026 3026 3026 3027 3027 3028 3029 3030 3031 3031 3031 3031 3030 3030 3029 3029 3028 3028 3027 3026 3025 3024 3024 3024 3025 3024 3022 3021 3020 3019 3018 3017 3017 3016 3015 3013 3012 3011 3009 3007 3005 3003 3001 2999
3012 3013 3014 3015 3015 3016 3016 3017 3017 3018 3018 3019 3019 3019 3019 3019 3019 3020 3020 3019 3020 3020 3020 3020 3020 3020 3020 3020 3020 3020 3020 3021 3021 3021 3021 3021 3021 3021 3021 3021 3022 3022 3021 3021 3021 3022 3023 3024 3025 3026 3026 3025 3025 3024 3025 3025 3024 3023 3023 3021 3020 3019 3019 3019 3020 3019 3018 3017 3016 3015 3014 3013 3012 3011 3010 3009 3008 3007 3006 3004 3002 3000 2998 2997 2995
3010 3011 3012 3012 3013 3014 3014 3015 3015 3015 3016 3016 3016 3016 3016 3016 3016 3016 3016 3016 3016 3016 3016 3016 3016 3016 3016 3016 3016 3016 3016 3016 3016 3015 3016 3016 3016 3016 3016 3016 3016 3016 3016 3016 3016 3016 3017 3018 3019 3019 3019 3019 3018 3019 3020 3019 3018 3017 3016 3014 3013 3013 3014 3015 3014 3013 3012 3012 3011 3010 3009 3008 3007 3006 3005 3004 3003 3002 3000 2998 2997 2995 2994 2992 2990
3008 3008 3009 3010 3010 3011 3011 3012 3012 3012 3012 3013 3013 3013 3013 3013 3013 3013 3013 3013 3013 3012 3012 3012 3012 3012 3011 3011 3011 3011 3011 3011 3011 3011 3011 3011 3011 3011 3011 3011 3011 3011 3011 3011 3011 3011 3012 3012 3012 3012 3013 3012 3012 3013 3013 3011 3010 3009 3008 3008 3008 3008 3009 3009 3008 3007 3007 3006 3005 3005 3004 3002 3001 3000 3000 2999 2997 2996 2994 2993 2991 2990 2988 2986 2985
3005 3005 3006 3007 3007 3007 3008 3008 3009 3009 3009 3009 3009 3009 3010 3010 3009 3009 3009 3009 3009 3008 3008 3008 3007 3007 3007 3007 3007 3006 3006 3006 3006 3006 3006 3006 3006 3006 3006 3005 3006 3005 3005 3005 3006 3006 3006 3006 3006 3007 3007 3007 3007 3006 3005 3004 3003 3002 3002 3002 3003 3003 3003 3003 3002 3002 3001 3000 3000 2999 2998 2996 2995 2995 2994 2993 2992 2990 2989 2987 2986 2984 2983 2981 2979